User: anonymous   Login
Location: Coupvray
(48.8929°N, 2.7967°E)
Time: 22:32:50
(UTC+00:00)
Language:

Iridium 4 Rocket - Orbit

View from above orbital plane
View from above orbital plane
View from above satellite
View from above satellite

Ground track
Ground track

The orbit data is extracted from the following two-line orbital elements,

1 24797U 97020F   20269.76469429 +.00000113 +00000-0 +19779-4 0  9995
2 24797 086.8899 275.0682 0222818 287.3659 248.0467 14.44188976230594
Epoch (UTC): 25 September 2020 18:21:09
Eccentricity: 0.0222818
inclination: 86.8899°
perigee height: 586 km
apogee height: 903 km
right ascension of ascending node: 275.0682°
argument of perigee: 287.3659°
revolutions per day: 14.44188976
mean anomaly at epoch: 248.0467°
orbit number at epoch: 23059

The dashed part of the orbit path shows where the satellite is in the earth's shadow,  

DLR